Tracking 30306 objects as of 22-Apr-2025
HD Live streaming from Space Station
objects crossing your sky now

THORAD DELTA 1 DEB

Track THORAD DELTA 1 DEB now!
10-day predictions


NORAD ID: 8184
Int'l Code: 1974-089BA
Perigee: 1,432.0 km
Apogee: 1,531.5 km
Inclination: 101.5 °
Period: 115.4 minutes
Semi major axis: 7852 km
RCS: 0.8469 m2 (medium)
Launch date: November 15, 1974
Source: United States (US)
Launch site: AIR FORCE WESTERN TEST RANGE (AFWTR)

Note: This is SATELLITE DEBRIS
Your satellite tracking list
Your tracking list is empty




NASA's NSSDC Master Catalog

Two Line Element Set (TLE):
1 08184U 74089BA  25111.88650616  .00000020  00000-0  41978-3 0  9993
2 08184 101.4823  84.9055 0063349 203.8914 170.5340 12.47584861296378
Source of the keplerian elements: AFSPC